Regional Weather Roundup
Issued by NWS Spokane, WA

Home | Current Version | Previous Version | Text Only | Print | Product List | Glossary On
Versions: 1 2 3 4 5 6 7 8 9 10 11 12 13 14 15 16 17 18 19 20 21 22 23 24 25 26 27 28 29 30 31 32 33 34 35 36 37 38 39 40 41 42 43 44 45 46 47 48 49 50
000
NZUS01 KOTX 020310
RWROTX
EASTERN WASHINGTON/NORTHERN IDAHO ROUNDUP
NATIONAL WEATHER SERVICE, SPOKANE WA
800 PM PDT FRI AUG 01 2014

Note: "fair" indicated few or no clouds below 12,000 feet with no
significant weather and/or obstructions to visibility.

...NORTHEAST WASHINGTON AND NORTHERN IDAHO PANHANDLE...

CITY           SKY/WX    TMP DP  RH WIND       PRES   REMARKS
SPOKANE INTL   MOCLDY    88  39  17 N5        29.97S
SPOKANE DOWNTO MOCLDY    87  41  19 E7        29.96R
COEUR D ALENE  PTCLDY    86  46  25 S14G22    29.99R
DEER PARK      CLOUDY    81  48  31 N3        29.97S
SANDPOINT      PTCLDY    73  61  64 CALM      29.98R

...SOUTHEAST WASHINGTON AND SOUTHERN IDAHO PANHANDLE...

CITY           SKY/WX    TMP DP  RH WIND       PRES   REMARKS
WALLA WALLA    MOCLDY    96  48  19 CALM      29.86S HX  92
PULLMAN/MOSCOW PTCLDY    84  46  26 E16       30.01R
LEWISTON       PTCLDY    90  48  23 NE17G23   29.90R
LOWELL           N/A     73  62  68 CALM      29.99R

...COLUMBIA BASIN...

CITY           SKY/WX    TMP DP  RH WIND       PRES   REMARKS
EPHRATA        MOCLDY    92  44  19 SW8       29.89R
MOSES LAKE     MOCLDY    94  44  17 NW8       29.89R HX  90
TRI CITIES     MOCLDY    87  64  46 N7        29.81S
HERMISTON      CLOUDY    92  59  33 E3        29.82R HX  91
PENDLETON      MOCLDY    89  43  20 N8        29.88R

...EAST SLOPES CASCADES...

CITY           SKY/WX    TMP DP  RH WIND       PRES   REMARKS
THE DALLES     CLOUDY    90  61  37 NW18      29.80R HX  90
YAKIMA         CLOUDY    89  56  32 CALM      29.89R
ELLENSBURG     CLOUDY    85  53  33 NW9       29.93S
WENATCHEE      PTCLDY    86  50  28 NW13      29.92R
OMAK           MOCLDY    90  42  18 S5        29.90R

...SOUTHERN BRITISH COLUMBIA...

CITY           SKY/WX    TMP DP  RH WIND       PRES   REMARKS
PENTICTON      MOCLDY    81  59  47 SE3       29.89R
CASTLEGAR      MOCLDY    82  55  39 VRB3      29.92R

...WESTERN MONTANA...

CITY           SKY/WX    TMP DP  RH WIND       PRES   REMARKS
MISSOULA       CLOUDY    80  44  27 NW9       30.09R

...NEIGHBORING CITIES...

CITY           SKY/WX    TMP DP  RH WIND       PRES   REMARKS
SEATTLE        PTCLDY    78  54  43 NW7       29.97S
CALGARY        MOCLDY    73  57  56 E14       30.20R



USA.gov is the U.S. government's official web portal to all federal, state and local government web resources and services.